Regional Weather Roundup
Issued by NWS Northern Indiana

Home | Current Version | Previous Version | Graphics & Text | Print | Product List | Glossary On
Versions: 1 2 3 4 5 6 7 8 9 10 11 12 13 14 15 16 17 18 19 20 21 22 23 24 25 26 27 28 29 30 31 32 33 34 35 36 37 38 39 40 41 42 43 44 45 46 47 48 49 50
000
ASUS43 KIWX 291400
RWRIWX

KIWX WEATHER ROUNDUP
NATIONAL WEATHER SERVICE NORTHERN INDIANA
1000 AM EDT FRI MAY 29 2015

NOTE: "FAIR" INDICATES FEW OR NO CLOUDS BELOW 12,000 FEET WITH NO
SIGNIFICANT WEATHER AND/OR OBSTRUCTIONS TO VISIBILITY.

* THESE STATIONS ARE NOT UNDER NWS QUALITY CONTROL. THEY ALSO MAY NOT
  REPORT WEATHER SUCH AS PRECIPITATION OR FOG.

INZ001>027-291500-
NORTHERN INDIANA

CITY           SKY/WX    TMP DP  RH WIND       PRES   REMARKS
GARY*          PTSUNNY   75  66  73 S8        30.07R
SOUTH BEND     MOSUNNY   76  65  68 S10       30.09R
ELKHART*       MOSUNNY   73  64  73 S7        30.10S
GOSHEN         PTSUNNY   75  65  70 S12       30.11R
MONTICELLO*    PTSUNNY   73  67  82 S6        30.10R
WARSAW*        PTSUNNY   72  64  78 S7        30.12R
ANGOLA*        SUNNY     73  64  73 S6        30.12S
FORT WAYNE     CLOUDY    74  66  76 S12       30.13R
PERU/GRISSOM   PTSUNNY   74  66  75 S12       30.11R

$$
INZ028>050-291500-
CENTRAL INDIANA

CITY           SKY/WX    TMP DP  RH WIND       PRES   REMARKS
LAFAYETTE      PTSUNNY   74  66  76 S6        30.10R
KOKOMO*        PTSUNNY   73  64  73 S12       30.12R
MUNCIE*        PTSUNNY   75  66  73 S9        30.13R
INDIANAPOLIS   PTSUNNY   72  64  76 S6        30.11R

$$
MIZ043>046-050>051-056>058-064>065-071>073-077>080-291500-
SOUTHWEST LOWER MICHIGAN

CITY           SKY/WX    TMP DP  RH WIND       PRES   REMARKS
BATTLE CREEK   CLOUDY    73  64  73 S8        30.12R
BENTON HARBOR  PTSUNNY   74  64  71 S9        30.07S
COLDWATER*     CLOUDY    72  63  74 S7        30.12S
HILLSDALE*     PTSUNNY   74  65  75 S8        30.13S
HOLLAND        PTSUNNY   71  63  75 S7        30.08S
GRAND RAPIDS   CLOUDY    71  62  73 S12       30.08F
KALAMAZOO      CLOUDY    72  63  73 S10       30.11R
STURGIS*       PTSUNNY   72  64  78 S9        30.11R
THREE RIVERS*  FAIR      73  63  72 S7        30.12R

$$
OHZ001>008-015>018-024>025-291500-
NORTHWEST OHIO

CITY           SKY/WX    TMP DP  RH WIND       PRES   REMARKS
DEFIANCE       CLOUDY    72  65  78 S7        30.13S
FINDLAY        CLOUDY    70  67  90 SE7       30.13F FOG
TOLEDO EXPRESS CLOUDY    71  63  75 S7        30.13S
TOLEDO METCALF CLOUDY    72  62  71 S10       30.14R
LIMA           CLOUDY    70  67  90 S5        30.15S

$$
AND FOR LAKE MICHIGAN COASTAL AND OPEN LAKE BUOY OBSERVATIONS

STATION/POSITION TEMP    WIND        PRES    VSBY  WAVE
                 AIR SEA DIR/SP/G                  HT/PER
                 (F)     (DEG/KT/KT) (MB)    (MI)  (FT/S)
CALUMET HARBOR    74     180/  8/ 12   N/A
MICHIGAN CITY     71     150/ 10/ 14   N/A
BURNS HARBOR      73     210/ 10/ 13 1018.6S
SAINT JOSEPH      72     160/  3/  9 1018.3F
SOUTH LAKE BUOY   47 38  150/ 12/ 12 1017.7R         1
4 MI NW BRIDGMAN  64 56  200/  6/  8   N/A           1/ 2
MICHIGAN CITY     64 55  200/  6/  8   N/A           1
MICHIGAN CITY CG     61              1019.5      6   1

$$
&&


USA.gov is the U.S. government's official web portal to all federal, state and local government web resources and services.